COSMOS 2251 DEB

Satellite information

Favourite Embed

Satellite Type and Status

DEBRISIN ORBIT

Key statistics

Satellite COSMOS 2251 DEB at a glance.

Uptime

11650

Days in orbit

Revolutions

≈ 13.5

Per day

Orbit

LEO

Low Earth Orbit

Inclination

73.9

Latest

Satellite identification and parameters

Extended collection of information and parameters for COSMOS 2251 DEB.

Object identification

Identified? True

Debris? True

Object name: COSMOS 2251 DEB

International designator: 1993-036AMA

Object number (NORAD): 35583

Object ID (CCSDS): 35583

Country: COMMONWEALTH OF INDEPENDENT STATES (CIS)

Current information (Y/N): Y

RCS size: SMALL

Orbital parameters

Period: 106.283 minutes

Inclination: 73.9185 deg

SMA: 7432.529 km

Apoapsis: 1341.304 km

Periapsis: 767.484 km

RAAN: 205.6249 deg

Eccentricy: 0.0386019

Argument of periapsis: 270.7526 deg

Mean anomaly: 84.9379 deg

Mean motion: 13.54870632 rev/day

Mean motion (dot): 0.00001478 rev/day2

B* drag term: 0.0013568 1/REarth

Two-line elements (TLE)

Creation date: May 9, 2025, 2:46 a.m.

Reference frame: TEME

Reference center: EARTH

Epoch: May 8, 2025, 10:55 a.m. UTC

TLE line 0: 0 COSMOS 2251 DEB

TLE line 1: 1 35583U 93036AMA 25128.45528481 .00001478 00000-0 13568-2 0 9995

TLE line 2: 2 35583 73.9185 205.6249 0386019 270.7526 84.9379 13.54870632794552

Live tracking on map

Real-time ground track for satellite COSMOS 2251 DEB.

In-orbit conjunctions

A list of the most updated potential collisions computed for object COSMOS 2251 DEB.

Target Orbit TCA Probability of collision Miss distance Type
NOAA 16 DEB SSO 2024-11-09 02:09:45 0.0003016101 565.0 (m) DEBRIS
FENGYUN 1C DEB SSO 2024-07-03 04:14:43 0.0001831683 332.0 (m) DEBRIS

Associated space launch

Military communications satellite. Destroyed in a collision with Iridium 33.

COSMOS 2251 DEB was lifted into orbit during the mission ‘Kosmos-3M | Strela-2M 51’, on board a Kosmos-3M space rocket.

The launch took place on June 16, 1993, 4:17 a.m. from 132/1 (132L).

For more information about the launch, click the button.

Launch to space Kosmos-3M | Strela-2M 51
Kosmos-3M | Strela-2M 51

Agency: N/A

Status: Launch Successful

Launch date: June 16, 1993, 4:17 a.m. UTC

Rocket: Kosmos-3M

Launch pad: 132/1 (132L)

Location: Plesetsk Cosmodrome, Russian Federation

...

Latest news about this satellite

There are no fresh news available about this satellite. Check back as we update our databases every day.


Newsletter sign-up

Weekly statistics, charts and insights to help you stay on top of the space industry.